GFSCGP_sfc_wetblb_033.txt.gz
Wetbulb
41.07 35.95 33.47 36.76 37.76 37.42 35.86 34.36 33.36 36.35 41.13 37.78 37.73 37.12 40.03 42.51 42.27 42.42 39.50 39.03 38.94 39.50 41.54 41.88 41.70 41.43 41.54 41.24 41.89 42.73 43.50 44.86 46.85 48.91 50.12 51.02 51.44 52.43 52.69 54.81 55.43 54.87 54.50 52.63
37.28 34.09 39.81 40.99 40.88 38.53 36.16 33.92 33.64 37.24 40.27 37.53 36.55 36.67 39.91 42.42 39.34 38.73 38.41 37.77 38.13 39.04 39.53 40.30 39.88 39.56 39.57 39.50 40.10 40.84 41.51 42.72 43.87 45.61 46.42 47.79 48.57 48.57 51.31 52.17 52.65 53.60 53.03 52.08
35.04 39.21 42.86 41.63 38.80 37.46 35.91 34.36 33.79 35.08 36.47 36.93 33.89 32.10 35.81 37.47 39.11 39.59 39.04 38.85 38.74 37.91 37.57 37.63 38.08 37.89 37.83 37.60 38.06 39.42 40.15 40.83 41.28 43.09 44.84 44.87 45.35 44.65 43.95 45.85 48.33 49.65 50.58 50.70
38.40 42.12 41.17 38.12 36.92 37.51 33.00 37.97 37.03 35.88 31.41 27.23 33.31 24.38 32.88 35.76 35.33 36.54 36.47 35.30 35.65 36.40 37.47 37.68 37.07 37.07 37.10 36.73 37.68 38.18 39.03 39.47 40.39 40.40 40.26 39.76 40.37 39.94 40.99 41.87 44.01 46.39 47.42 47.32
36.81 37.16 36.00 35.48 37.34 38.69 35.69 36.97 34.91 33.73 30.01 28.17 29.29 25.37 30.61 34.95 32.83 33.94 34.54 35.39 35.74 36.26 36.51 36.28 36.25 37.03 36.94 36.64 35.95 36.24 37.09 37.88 38.51 38.56 38.18 37.91 37.39 38.18 38.73 39.86 40.00 40.50 43.10 44.70
37.14 38.81 38.63 38.59 39.47 38.41 38.17 34.39 34.08 31.32 29.42 23.32 29.42 28.86 29.54 32.11 34.17 33.74 35.06 35.46 36.02 35.80 35.70 35.77 36.51 36.60 35.01 34.62 34.40 34.76 35.01 35.26 36.42 36.99 36.80 36.16 35.49 35.76 35.83 36.19 36.65 37.69 39.08 40.61
36.22 36.54 37.83 38.93 35.16 36.44 35.22 30.22 25.16 23.42 21.68 23.15 31.39 29.33 32.61 36.98 36.06 36.03 34.24 34.03 34.44 34.68 34.19 33.96 33.61 33.60 33.82 33.05 33.00 34.01 33.19 33.23 34.38 34.83 35.08 34.87 35.15 34.88 34.74 34.81 35.14 34.94 35.77 36.52
31.77 30.29 35.25 37.05 36.49 34.61 32.62 32.39 26.01 18.02 22.04 23.80 30.29 27.04 32.80 35.10 36.32 35.99 35.39 34.63 34.59 34.00 34.30 34.10 33.86 32.91 33.49 33.34 32.59 32.05 31.83 31.64 32.93 33.42 33.58 33.92 34.06 34.29 34.43 33.59 33.76 33.95 34.39 35.07
30.68 31.15 35.55 36.42 35.90 37.21 33.74 30.89 35.65 29.20 28.50 21.38 26.81 31.15 33.50 35.24 34.16 33.98 33.16 32.71 32.12 33.50 34.66 34.99 33.24 32.30 32.01 32.49 32.31 31.66 30.98 31.09 31.77 32.83 32.51 33.04 33.07 32.94 32.29 31.47 31.97 32.13 33.16 34.82
36.67 28.30 37.46 35.97 37.13 35.94 35.91 37.72 28.67 30.12 16.72 15.97 23.52 25.46 27.23 31.65 32.24 32.95 31.26 31.36 31.55 32.57 33.16 34.16 33.52 32.51 31.72 31.51 31.44 31.66 31.95 30.16 30.32 31.09 31.63 31.82 31.36 32.15 31.31 31.08 30.92 30.32 31.22 31.66
37.88 34.17 31.56 35.63 33.38 33.30 30.71 29.98 32.20 32.11 28.71 21.89 17.16 22.97 33.69 34.37 34.09 32.18 31.49 32.23 32.61 32.74 32.63 32.39 33.01 33.14 31.46 31.07 29.92 29.46 29.60 29.63 29.45 30.08 30.45 31.38 31.31 31.40 30.46 29.05 28.91 29.04 29.67 29.94
38.39 33.85 24.42 30.82 35.54 36.02 35.27 32.92 32.41 28.21 24.32 26.14 26.35 26.54 35.58 34.91 34.12 32.95 32.99 33.07 31.68 31.34 29.13 29.21 30.00 30.89 30.44 29.25 29.14 28.87 29.46 29.59 30.10 30.76 29.69 29.49 30.20 29.74 29.50 28.32 28.06 28.44 28.58 29.28
37.72 30.26 16.74 22.03 27.62 33.84 31.58 33.72 34.37 33.38 31.02 23.49 20.24 23.12 33.44 32.61 32.96 33.55 32.52 32.31 31.15 29.72 28.53 28.36 28.17 28.15 28.21 29.11 29.29 29.59 29.52 29.65 29.09 29.36 28.86 28.61 28.45 28.39 27.23 28.22 28.00 27.99 27.84 27.86
39.33 31.91 22.99 20.06 23.11 29.10 25.66 28.28 28.45 29.46 22.75 19.95 22.75 25.17 30.13 31.68 30.11 31.63 32.27 30.55 28.95 27.59 27.51 26.90 26.49 27.18 27.93 28.47 27.99 28.06 28.21 28.21 28.89 28.49 27.38 26.06 25.74 26.75 26.69 26.97 26.81 26.36 26.53 26.43
34.22 22.58 27.44 28.40 27.38 26.20 25.37 25.81 26.72 24.00 25.40 19.79 24.00 24.07 28.09 30.10 26.01 25.39 26.58 28.44 29.14 28.46 26.94 26.54 26.24 26.40 26.73 26.95 27.04 27.75 27.94 27.88 27.19 26.25 25.56 25.34 25.66 26.14 26.41 25.91 25.43 25.89 25.73 25.40
32.50 18.92 22.95 14.53 25.35 25.55 22.82 24.73 24.42 24.36 24.42 24.08 25.08 24.78 31.66 25.89 26.58 25.73 26.76 26.64 25.66 26.05 26.58 26.67 27.29 27.35 27.19 27.59 27.32 27.64 27.17 26.85 26.04 24.12 24.92 25.91 25.66 26.20 26.39 26.31 26.31 26.16 25.31 24.45
26.61 20.60 11.56 8.72 21.70 17.24 10.45 19.19 22.76 23.70 25.49 23.75 19.66 23.95 21.41 22.42 25.64 23.96 24.32 25.37 25.78 26.59 26.57 26.44 26.43 26.80 26.36 26.20 27.02 26.10 25.46 24.95 24.81 25.07 24.86 25.07 25.27 24.45 24.74 25.09 24.69 24.26 23.75 24.35
24.15 18.70 12.50 5.99 6.30 0.43 18.82 23.46 23.31 22.46 23.74 21.19 18.21 15.20 18.48 21.85 23.09 24.05 24.74 23.69 24.98 26.18 26.39 26.45 26.14 26.08 26.22 25.67 24.74 24.76 24.63 23.88 23.74 22.08 20.63 21.65 22.48 21.31 21.99 21.47 21.13 20.82 21.22 20.96
26.95 22.88 8.13 5.62 -1.07 10.84 19.18 21.58 20.31 17.42 16.61 17.83 16.49 19.70 22.82 23.21 22.08 20.86 25.36 26.14 25.79 26.26 26.77 26.33 26.21 25.73 23.98 23.28 23.00 22.75 22.18 22.00 21.29 20.28 19.89 18.93 17.50 15.78 16.07 14.25 15.01 15.58 15.22 15.72
23.38 24.63 16.89 -4.32 2.47 -0.36 14.98 20.00 23.45 21.95 11.50 16.60 14.63 18.38 20.01 21.78 11.59 16.77 25.32 27.22 27.04 27.25 26.78 25.34 24.34 23.89 22.84 21.03 20.98 19.53 18.73 17.60 16.40 17.49 16.28 15.35 13.80 10.35 9.44 9.75 8.88 10.07 10.18 11.55
4.72 4.15 13.71 13.89 7.37 8.92 18.77 21.05 23.62 7.02 13.02 14.89 19.38 21.55 21.54 18.78 19.88 23.71 25.88 25.63 26.37 26.03 24.65 22.93 21.85 21.47 19.79 19.56 17.82 15.89 15.25 13.83 14.89 13.38 12.45 11.35 9.78 6.96 6.21 6.06 6.55 5.86 5.49 7.00
11.45 6.29 2.65 -1.62 -3.85 3.60 21.10 21.16 16.06 20.76 25.33 24.24 24.15 23.53 23.58 24.10 24.55 24.38 25.26 24.80 24.33 22.76 21.68 20.60 18.04 18.15 17.89 16.89 14.43 12.52 11.35 13.04 11.15 9.86 7.87 5.47 4.02 3.99 5.23 2.67 2.90 2.87 2.65 2.17
10.13 14.80 8.90 13.09 11.48 21.79 22.28 22.95 25.57 25.67 22.01 24.71 24.72 25.04 24.78 24.29 23.54 24.21 23.80 23.29 22.35 20.60 20.43 17.06 14.16 14.57 14.44 13.73 11.36 7.42 9.45 9.35 7.82 0.44 0.02 0.80 2.25 2.91 2.96 1.00 1.14 1.28 1.95 1.71
18.47 20.41 16.11 14.87 20.08 21.53 23.80 24.65 25.55 25.82 25.12 26.08 25.77 25.44 24.21 23.23 24.39 24.05 23.06 22.74 21.12 18.53 16.63 14.09 11.09 10.23 9.30 8.25 9.30 4.53 6.73 6.60 -4.64 -6.01 -0.36 1.92 1.76 1.23 1.51 2.80 2.67 1.37 0.99 0.85
19.63 19.44 17.07 17.88 22.55 23.26 23.82 24.84 26.05 25.82 25.77 25.45 25.27 24.85 24.38 23.46 23.14 23.66 21.25 18.24 17.69 16.65 13.81 11.51 9.50 9.04 6.58 6.79 4.20 0.17 3.17 -1.56 -2.29 -0.43 1.41 1.32 1.53 0.59 1.02 2.00 1.39 2.30 4.36 5.76
24.12 21.48 18.46 16.91 24.21 23.03 24.89 26.07 25.75 24.81 24.70 25.04 24.64 23.10 22.90 23.02 21.56 19.15 16.26 15.42 14.61 12.43 10.98 8.99 7.54 5.30 2.35 -0.43 -0.96 -2.99 -6.04 -7.38 -5.04 -1.17 0.76 0.96 1.34 1.36 1.45 0.51 0.62 7.96 10.57 12.64

GFSCGP_sfc_wetblb_036.txt.gz
Wetbulb
39.74 35.27 32.84 35.61 36.59 35.59 33.86 32.32 32.49 35.18 39.42 36.01 36.33 36.30 39.72 40.28 40.24 36.85 35.37 36.31 36.95 37.35 38.78 38.88 38.53 38.16 38.27 38.69 39.26 39.86 40.46 41.34 44.31 45.40 48.12 50.12 50.45 51.45 52.34 55.22 56.47 56.42 55.69 53.16
36.33 33.35 38.85 39.13 38.46 36.61 35.11 32.78 32.52 36.34 38.43 36.11 35.04 35.78 36.12 36.76 35.87 35.70 35.46 35.50 35.96 35.83 36.16 37.23 36.86 36.62 36.46 36.44 37.56 38.41 39.13 39.44 40.78 42.62 43.38 44.56 44.65 44.85 48.86 49.68 51.86 52.96 54.01 53.47
34.37 38.24 40.83 40.02 37.48 36.44 35.02 33.35 32.91 34.77 35.44 34.80 32.18 31.70 32.94 36.00 36.49 37.05 36.37 36.17 35.82 34.90 34.75 35.10 35.39 34.66 34.98 34.70 35.33 37.21 37.84 38.34 38.53 39.96 41.22 41.77 42.03 41.55 41.62 42.52 44.23 47.30 49.02 50.34
36.55 40.40 39.63 37.08 36.54 37.20 32.59 36.76 35.85 33.84 30.69 27.02 31.56 23.74 31.08 33.15 33.08 33.94 33.73 32.99 33.20 33.83 34.70 34.84 34.16 33.98 33.67 33.29 34.10 35.59 36.85 37.22 37.92 38.06 38.01 37.16 36.74 36.17 36.97 38.30 39.35 41.03 42.37 43.07
37.13 36.11 35.36 35.12 37.06 37.44 34.64 35.70 33.76 32.35 29.37 26.87 27.12 24.51 29.05 32.54 30.44 31.16 31.93 33.23 33.30 33.81 33.75 33.46 33.23 34.18 33.82 33.29 32.61 33.17 34.87 35.42 35.91 36.16 36.42 35.71 35.00 35.23 35.49 36.38 36.33 37.11 38.38 38.58
36.38 37.51 37.49 37.80 37.31 36.90 36.81 33.90 32.87 29.40 27.97 22.29 27.22 27.38 28.05 30.59 32.39 31.19 32.66 33.28 33.87 33.23 32.97 33.26 33.95 33.48 32.06 31.72 32.09 32.19 33.12 33.45 34.23 34.04 34.02 33.97 33.29 33.33 33.09 33.24 33.64 34.44 35.31 35.97
34.62 35.57 36.65 38.03 34.67 34.69 33.89 30.36 24.90 22.60 20.89 22.42 29.78 26.24 29.68 32.74 33.62 33.87 32.49 32.21 32.47 32.50 31.57 31.42 31.43 31.22 31.12 30.39 30.02 31.91 31.22 31.23 32.36 32.59 32.32 31.97 31.79 31.75 31.29 31.30 31.39 31.48 32.21 33.11
31.25 29.50 34.61 36.45 35.76 33.90 31.50 31.17 23.57 13.48 19.77 22.57 29.48 26.65 30.82 32.86 34.07 34.06 33.72 32.94 32.92 32.23 32.30 31.25 30.92 30.84 30.79 30.71 29.51 29.35 29.59 29.89 31.10 31.15 30.83 30.95 30.64 30.41 30.60 30.49 30.58 30.73 31.09 31.80
30.33 30.37 34.02 34.83 34.77 36.68 32.88 29.78 33.50 28.26 26.87 25.16 26.29 27.84 32.41 33.06 31.68 31.73 31.46 31.19 30.70 31.50 32.29 31.37 30.53 30.31 30.98 30.97 31.34 30.57 29.29 29.33 29.72 30.18 30.49 30.61 30.25 28.94 28.39 28.78 29.56 29.98 30.67 31.84
35.04 27.02 35.57 34.97 37.01 34.60 34.54 36.05 27.93 27.86 13.21 17.63 22.66 24.62 25.93 29.58 30.00 31.08 29.93 29.99 30.55 31.76 32.98 33.18 32.41 32.00 31.68 31.46 31.86 30.75 30.99 29.54 29.14 29.16 30.01 30.60 29.95 30.68 29.86 29.19 28.52 28.67 29.68 30.36
36.65 32.41 30.44 34.36 32.68 32.29 30.24 30.30 30.74 30.61 27.71 17.18 14.55 22.54 31.44 32.41 32.70 31.11 30.07 30.61 30.39 30.62 30.85 31.80 30.58 29.71 29.62 30.14 30.31 30.71 30.24 29.79 29.64 29.86 29.48 29.39 29.82 28.38 28.12 28.21 28.25 28.34 28.31 28.20
37.23 32.56 24.37 30.30 34.31 34.74 33.04 31.15 31.18 27.69 23.21 24.98 24.57 25.08 34.21 34.47 33.13 32.20 31.33 32.18 30.94 30.47 28.78 27.91 29.01 27.90 27.52 27.05 26.92 27.03 27.69 27.46 28.24 28.22 28.16 27.65 27.67 26.97 26.16 26.01 26.18 26.20 27.31 27.98
37.37 28.29 16.62 22.22 27.83 31.40 30.26 31.97 31.91 30.98 28.71 19.89 22.86 22.92 32.89 32.72 31.77 31.95 31.20 31.21 30.80 28.42 26.70 27.33 27.08 27.77 27.84 26.58 26.38 26.35 26.48 27.10 27.79 27.56 26.66 26.07 25.47 25.32 25.47 25.57 25.72 26.29 26.04 25.29
38.98 29.40 23.96 20.99 23.21 28.04 25.40 28.36 29.18 27.18 21.11 21.01 24.26 25.17 29.08 30.49 30.10 30.80 31.44 31.30 28.84 26.99 26.45 25.79 25.42 25.92 26.24 26.90 26.60 26.02 26.41 26.80 26.75 26.43 25.69 24.72 24.65 24.95 24.96 25.16 25.12 24.76 25.07 24.13
33.71 23.19 26.69 28.12 28.29 28.04 26.15 27.19 27.05 25.36 25.85 21.53 24.94 24.00 28.44 29.56 26.68 27.90 27.76 28.20 27.53 25.62 25.08 24.61 24.67 24.96 25.63 25.92 25.70 26.16 26.43 26.36 25.88 24.73 24.52 24.33 24.75 25.00 24.50 24.29 24.43 24.43 24.47 24.70
31.58 19.43 23.28 15.20 25.39 26.54 23.87 25.45 24.68 25.65 25.86 24.51 25.11 24.26 30.97 28.31 25.15 24.23 25.22 27.17 27.08 26.77 26.13 26.29 26.03 25.86 25.80 25.57 25.35 25.81 25.01 25.55 24.73 23.31 23.94 24.82 24.56 24.56 24.13 24.05 23.57 23.30 23.13 22.65
28.14 22.23 16.63 14.17 20.75 18.04 12.45 18.43 22.69 24.23 24.23 22.91 18.79 23.64 20.74 22.69 25.54 24.92 24.03 24.14 24.69 25.45 25.73 25.76 26.05 26.09 26.34 25.58 26.06 24.24 23.59 23.85 23.51 23.46 22.33 22.27 22.07 20.50 20.82 20.22 19.10 18.45 17.69 18.08
25.53 20.83 15.48 8.25 9.42 1.71 19.77 21.50 22.19 22.00 23.62 22.65 18.49 15.14 19.13 21.94 22.75 24.13 24.18 24.53 25.08 25.51 26.06 26.04 25.75 24.97 25.40 24.32 23.77 23.87 23.38 22.21 21.98 19.34 16.86 18.14 17.87 15.77 16.38 15.38 14.56 14.03 14.26 13.65
26.80 22.69 8.82 7.54 3.39 11.44 19.94 21.30 19.71 18.07 16.83 18.20 17.16 17.73 22.44 22.04 21.19 20.41 24.77 24.88 24.88 25.54 26.44 26.02 25.72 24.55 23.27 22.21 21.74 20.88 20.09 20.08 18.46 17.37 17.61 15.66 13.50 10.90 12.00 9.04 10.09 10.53 9.51 9.41
23.56 24.69 17.37 -0.94 -0.71 0.22 15.93 19.32 22.00 22.09 10.79 14.81 13.70 16.14 18.96 20.59 11.21 18.34 23.75 26.22 26.10 26.13 25.89 25.57 24.49 23.61 21.58 19.68 19.62 18.12 17.49 15.80 14.52 15.43 13.93 13.07 11.85 4.55 6.52 7.27 6.29 7.14 6.64 7.65
6.76 8.39 17.27 14.65 4.76 6.90 18.34 20.41 22.78 8.06 13.60 13.67 16.97 20.57 20.15 18.28 22.06 23.47 24.96 24.77 25.83 26.16 25.09 23.75 22.56 21.49 19.11 18.21 16.34 14.99 14.35 12.81 13.38 11.71 11.07 10.12 8.68 5.64 4.73 4.56 5.23 4.14 3.51 4.89
11.67 8.59 6.06 6.12 3.77 2.91 19.68 20.15 15.85 20.93 23.45 22.83 23.00 24.12 22.90 24.17 24.55 24.25 24.79 24.37 24.74 23.33 22.86 21.80 18.96 17.78 17.17 15.88 13.55 11.80 10.57 12.17 9.98 8.98 7.17 4.30 1.85 2.16 4.49 1.28 1.82 1.72 1.13 0.67
11.25 14.93 9.17 12.54 11.49 22.03 21.78 24.27 26.93 26.06 22.45 24.70 24.42 25.13 24.41 24.00 23.75 24.40 24.16 24.10 23.94 22.30 21.40 18.02 15.48 15.20 14.29 13.39 11.27 7.99 9.26 8.87 7.52 -1.60 -3.07 -2.97 -0.09 1.97 2.44 0.00 0.43 0.21 0.72 0.43
18.34 19.73 15.51 14.17 19.23 20.52 23.76 26.53 25.11 25.48 25.07 26.03 26.22 25.75 24.31 23.45 24.42 24.42 23.51 23.18 22.19 19.56 16.81 13.83 11.99 11.72 11.39 11.05 9.90 6.24 6.30 6.58 -6.27 -10.32 -4.27 -0.43 0.17 0.73 1.01 2.22 2.28 0.16 -0.43 0.02
19.41 18.90 15.68 16.57 22.42 21.96 22.71 23.62 25.52 25.14 25.12 25.44 24.98 24.88 24.68 23.26 23.55 23.79 22.70 21.03 19.74 16.87 13.98 12.09 10.40 10.70 9.71 8.69 6.96 3.21 3.03 -2.96 -5.74 -4.74 -0.95 -0.30 0.11 -1.07 0.99 2.16 1.66 2.39 4.39 5.62
24.32 21.46 17.64 16.14 24.35 23.39 24.28 26.41 25.96 25.00 25.13 24.62 24.25 23.30 23.26 23.18 23.12 21.73 19.21 18.16 15.15 12.85 10.50 9.57 8.58 6.83 6.74 4.75 3.15 2.54 -1.68 -7.85 -9.06 -4.39 -0.93 -0.34 0.36 0.85 1.46 0.76 0.43 7.72 10.42 12.57

GFSCGP_sfc_wetblb_042.txt.gz
Wetbulb
37.28 33.65 32.09 34.28 35.01 33.45 33.04 30.79 30.45 32.31 36.36 34.35 34.49 34.39 33.84 33.67 33.35 32.33 31.87 31.61 31.94 32.43 34.13 34.30 34.13 33.90 34.24 34.89 35.82 36.32 37.21 38.25 40.92 41.92 43.01 42.53 40.49 42.53 43.31 43.59 43.20 43.77 45.43 48.47
34.28 31.20 36.48 36.53 35.58 34.42 32.06 30.09 30.44 33.95 35.45 34.86 33.10 32.85 32.10 32.98 32.19 32.59 31.59 31.11 31.37 31.63 31.97 32.72 32.42 32.34 32.03 32.29 33.61 34.75 35.67 36.27 38.04 39.32 39.25 39.38 38.72 38.52 39.30 40.31 39.65 39.67 40.08 41.03
33.18 36.54 38.35 37.10 33.96 33.16 31.46 30.73 30.74 33.05 32.82 31.54 30.22 30.00 30.18 31.35 32.46 32.94 32.53 32.44 32.12 31.11 30.59 30.29 30.16 29.63 30.12 30.48 30.82 33.05 33.99 34.85 35.79 37.30 37.81 37.49 37.05 36.00 35.51 35.26 35.60 35.11 35.47 36.18
34.55 37.84 37.49 34.12 33.65 34.91 30.39 35.56 34.27 33.03 29.89 27.04 30.07 24.39 28.31 29.41 29.45 30.64 31.07 29.99 30.03 30.01 30.47 30.10 29.09 28.67 28.53 28.93 29.86 31.40 32.10 32.65 33.74 34.85 34.23 32.75 31.50 30.23 30.73 31.58 32.03 32.35 32.60 32.31
36.05 35.16 34.83 34.11 35.41 36.85 34.23 34.52 33.03 30.67 27.82 26.35 25.50 24.46 27.14 29.02 27.33 28.65 29.47 30.22 29.99 29.90 29.50 28.87 28.53 29.12 28.71 28.59 28.02 28.87 30.41 30.46 30.90 31.26 31.19 30.51 29.23 29.20 28.69 29.10 29.29 29.96 30.54 30.67
36.34 36.48 36.83 37.10 35.20 35.97 35.41 33.03 31.03 27.46 26.17 21.83 26.07 26.41 25.70 27.37 29.12 28.79 29.90 30.34 30.88 30.01 29.32 29.01 29.18 28.54 27.52 27.60 28.00 28.05 29.01 28.76 29.21 29.45 29.15 28.35 27.53 27.31 27.63 27.26 27.36 27.68 28.49 29.14
33.17 34.22 34.91 36.37 33.43 33.43 33.16 31.21 25.60 21.78 20.20 21.81 24.99 23.68 28.05 31.59 31.25 31.45 30.90 30.38 30.23 30.11 28.68 28.16 27.51 26.33 26.38 26.40 27.29 28.46 28.02 27.41 27.79 27.95 27.58 27.18 26.51 26.85 26.63 26.67 26.51 26.73 27.30 27.23
30.30 29.36 34.63 36.56 34.60 32.54 31.03 31.54 25.42 16.22 17.79 20.85 26.88 24.60 29.94 30.99 31.30 32.68 32.84 31.55 30.34 29.32 29.11 28.47 28.04 26.66 26.14 26.50 26.15 26.79 27.21 26.91 27.17 27.28 26.87 26.66 27.03 26.61 26.56 26.73 26.56 26.59 26.61 27.17
30.11 31.46 33.49 34.18 34.54 34.86 30.10 28.23 30.94 25.29 18.72 20.42 24.46 27.21 29.47 29.98 29.27 29.67 30.23 29.65 29.07 29.15 28.92 28.61 28.24 27.22 26.09 25.70 25.92 26.09 26.19 26.70 27.09 26.81 26.56 26.57 26.47 25.80 25.45 25.65 25.84 25.75 26.04 28.24
35.03 28.22 32.83 32.89 34.84 34.60 32.88 34.44 28.23 25.85 14.29 12.22 20.85 23.19 24.91 27.94 28.36 29.23 28.92 29.11 29.40 29.93 29.64 28.27 27.99 27.88 27.45 26.62 26.22 26.22 26.42 26.05 26.32 26.70 26.63 26.47 25.79 25.78 25.58 25.40 24.48 24.46 25.13 25.17
34.16 32.45 29.58 32.91 30.98 30.79 30.98 29.94 29.30 28.87 23.45 15.06 12.03 20.18 28.97 30.36 30.06 29.44 30.10 30.73 30.00 30.15 29.95 28.44 27.93 28.03 27.36 26.56 25.80 25.73 25.85 25.58 25.38 25.82 25.46 25.46 25.18 25.19 25.15 24.81 24.25 24.37 24.59 24.48
36.28 32.04 25.91 29.70 32.01 32.03 32.16 31.46 31.48 25.82 22.50 22.67 22.56 24.75 31.37 31.18 31.75 31.95 31.57 31.41 30.24 29.93 30.14 28.75 27.43 26.70 25.66 25.49 25.78 25.72 24.64 24.74 25.55 25.45 25.50 25.09 24.85 24.65 24.17 23.75 23.77 23.88 23.49 23.91
36.92 30.29 19.61 24.05 28.39 29.42 29.26 30.41 31.50 28.99 24.81 20.46 18.93 22.51 31.14 31.23 31.07 31.39 30.87 30.67 29.96 29.50 28.28 28.88 26.49 25.64 25.90 25.40 24.39 24.31 25.08 25.21 25.72 25.37 24.87 24.74 24.37 23.90 23.65 23.72 23.85 23.73 22.91 22.18
39.66 31.36 26.63 25.65 26.69 29.65 27.73 29.77 29.63 28.25 20.68 23.12 26.37 28.66 28.12 29.81 30.52 29.79 30.50 30.40 29.89 29.31 28.01 27.57 26.68 25.48 24.86 24.78 24.62 24.00 24.55 25.22 25.50 25.34 24.35 24.16 23.54 23.53 23.19 23.27 22.72 21.64 21.12 19.73
36.46 31.19 27.46 27.32 26.44 26.03 26.32 28.40 28.89 26.52 30.09 25.92 29.18 27.83 28.68 31.49 31.21 30.60 30.39 30.08 29.31 29.46 26.56 25.34 26.43 25.92 25.69 25.40 24.73 24.36 23.80 24.12 23.99 23.59 23.67 23.31 23.69 23.02 22.40 21.45 19.95 18.71 18.56 17.67
31.20 26.16 24.90 20.20 25.41 24.95 24.81 26.75 27.14 29.08 26.57 24.72 25.51 26.26 31.27 28.54 28.56 28.18 28.91 28.05 27.53 27.70 27.30 25.90 26.64 26.24 25.98 25.71 24.77 25.45 23.90 24.25 23.89 22.79 23.07 23.17 21.83 20.92 20.01 18.37 17.21 16.72 15.94 15.10
28.43 24.00 21.32 20.37 19.33 20.63 22.38 22.11 26.54 26.47 26.76 27.42 24.24 29.85 21.76 23.30 26.61 26.70 26.60 25.78 26.40 27.91 28.25 25.85 25.65 25.82 25.82 25.16 25.93 24.08 23.51 23.39 22.77 22.79 21.11 20.38 18.07 15.99 15.99 15.27 14.39 13.17 12.22 12.55
24.99 22.34 22.76 14.62 15.76 15.76 22.98 19.54 21.80 26.02 26.47 25.69 21.20 20.49 22.69 23.71 23.86 24.77 25.23 25.44 25.72 26.77 27.32 26.35 24.88 24.22 25.07 24.69 24.22 23.48 23.10 22.27 21.07 18.17 15.85 15.94 14.37 12.49 13.35 11.99 10.88 10.45 10.46 9.59
27.51 24.72 15.93 17.26 14.09 18.53 21.99 19.34 19.22 19.32 20.40 22.87 22.67 23.05 23.33 22.73 21.70 20.56 24.52 24.28 24.84 24.75 25.42 25.36 25.44 24.25 23.58 23.33 23.11 22.22 20.83 20.22 17.89 16.53 15.75 13.43 11.56 8.76 9.45 5.62 7.99 8.31 7.37 7.12
26.22 26.65 27.55 12.06 14.74 12.27 17.15 18.64 22.11 23.53 14.54 18.99 21.24 19.62 20.19 20.57 12.85 18.21 23.60 24.42 24.42 24.92 25.14 25.29 25.03 24.27 23.32 22.52 21.59 19.64 17.81 16.02 14.09 15.91 14.41 12.23 10.84 4.27 3.52 6.27 4.87 5.93 3.78 6.78
18.96 20.19 21.49 15.56 17.72 17.11 20.35 20.99 23.05 12.52 15.18 13.45 19.38 20.63 19.52 18.33 20.42 23.86 24.21 23.91 24.49 24.82 24.97 24.63 23.64 23.60 22.91 20.05 18.48 17.35 15.36 13.43 13.99 11.73 10.92 10.28 8.48 3.38 4.56 1.93 3.35 1.08 1.03 3.95
15.28 16.91 16.21 17.42 14.55 12.50 20.69 20.57 18.08 22.24 22.27 21.50 20.72 22.15 21.92 23.22 24.23 23.75 23.93 24.16 23.83 23.60 23.98 24.47 21.28 21.10 18.71 18.24 17.18 15.11 13.10 12.89 10.23 9.48 9.10 5.80 3.53 4.56 4.78 -5.42 -1.44 -3.97 -3.62 -3.10
13.82 17.32 14.12 18.66 17.55 21.57 23.52 23.88 26.05 25.77 22.50 22.48 22.35 23.22 23.80 23.11 22.76 23.84 23.05 23.12 23.38 22.39 23.83 20.33 20.16 17.53 14.67 14.52 13.79 12.18 11.31 10.09 8.15 4.02 0.90 2.20 2.97 3.26 2.28 -3.67 -0.17 -1.74 -4.76 -4.44
17.88 19.42 15.80 16.85 19.03 20.53 22.94 24.53 24.68 24.92 24.75 25.51 25.35 24.41 23.41 22.64 23.68 23.68 22.63 22.97 22.57 21.18 21.21 17.68 16.01 15.64 13.37 10.64 11.89 8.57 8.78 8.34 -1.46 -1.92 1.58 4.09 2.13 2.53 2.48 2.85 2.11 -2.04 -3.66 -2.45
20.05 19.48 15.31 15.76 20.29 21.44 22.73 23.90 25.70 25.12 25.20 24.23 24.00 24.53 24.28 22.83 22.62 22.95 22.56 21.27 21.68 20.91 17.52 16.26 16.45 16.57 13.55 10.26 7.25 4.19 5.29 2.18 -0.38 0.22 2.64 3.02 1.82 0.09 0.33 1.35 1.28 1.65 2.65 3.53
20.95 18.61 16.87 14.40 23.39 23.38 24.18 25.22 25.42 23.81 23.83 23.95 23.23 22.06 22.25 22.98 22.73 22.04 21.22 21.65 19.97 18.06 13.73 13.00 11.68 10.19 7.38 6.16 4.19 0.34 -1.30 -1.61 -2.96 1.02 2.44 2.18 0.94 0.09 0.93 0.06 -0.57 6.53 10.90 13.44

GFSCGP_sfc_wetblb_045.txt.gz
Wetbulb
38.19 35.24 33.79 35.10 35.61 34.87 33.85 32.21 32.93 34.00 37.15 36.23 36.14 35.89 34.15 34.10 33.89 32.72 32.44 32.44 32.43 32.55 34.07 34.42 34.25 34.31 34.94 35.79 36.78 37.55 39.21 40.24 43.19 43.99 44.11 43.32 40.69 41.38 40.35 39.74 39.40 40.36 40.99 43.19
34.28 31.61 36.98 36.72 35.54 34.54 32.84 31.40 31.46 34.39 35.96 35.47 34.12 34.57 33.09 33.39 33.04 33.33 32.15 31.69 31.91 32.29 32.71 32.93 32.92 32.84 32.62 33.15 34.23 35.68 36.79 38.05 40.22 41.01 40.74 40.59 39.13 38.10 37.23 36.80 35.84 36.24 37.68 38.80
32.97 36.34 37.25 36.86 33.27 32.72 31.50 30.97 30.89 33.31 33.98 33.36 31.80 31.94 31.14 31.98 32.79 33.03 32.92 32.95 32.49 31.64 31.20 31.27 31.29 30.83 31.57 31.12 31.21 33.11 34.56 35.43 36.65 38.40 39.58 38.71 37.78 36.25 34.53 33.88 33.50 33.76 34.72 35.12
34.27 37.63 37.52 34.20 33.60 34.55 30.28 34.75 34.24 33.22 32.05 29.06 31.34 27.01 30.83 30.22 30.17 31.20 31.47 31.21 31.38 31.16 30.92 30.67 30.19 30.04 30.04 30.30 31.15 31.79 32.56 33.30 33.50 35.22 34.07 33.16 32.28 30.64 31.26 31.87 32.68 32.83 33.48 33.12
36.17 35.11 34.81 34.02 35.12 36.77 34.13 35.27 33.98 32.40 29.47 28.21 28.51 27.13 29.56 29.56 28.17 29.45 30.28 30.80 30.98 31.10 30.30 29.54 29.37 29.59 29.62 29.96 29.69 30.21 31.52 31.55 31.92 32.40 32.93 31.89 30.44 30.71 30.96 31.22 31.53 31.77 32.23 32.40
36.56 36.98 37.11 37.37 36.09 36.57 34.81 33.03 31.21 28.67 27.85 23.44 28.31 28.34 27.94 27.99 30.15 30.35 30.88 30.89 31.17 30.65 30.13 29.51 29.32 29.34 29.07 29.69 29.73 29.73 30.11 29.53 30.35 30.77 30.63 30.39 29.84 29.66 30.05 29.83 29.78 30.23 30.76 31.26
32.88 33.73 35.42 36.55 33.49 34.79 34.10 32.44 26.37 23.20 22.47 24.13 26.34 25.38 29.52 31.88 32.31 32.86 31.61 31.24 31.18 30.84 29.41 28.78 27.98 27.94 28.53 28.76 29.10 29.67 29.18 28.16 28.94 29.49 29.48 29.52 29.20 29.37 28.86 29.00 29.07 29.11 29.20 29.14
30.26 28.62 34.05 35.80 34.98 32.66 31.63 32.40 27.37 20.43 19.21 22.26 27.24 24.78 30.65 32.23 32.48 32.86 33.34 32.58 31.41 30.17 29.59 28.95 28.18 27.56 27.68 28.09 28.46 28.55 28.51 28.00 28.44 28.87 28.52 29.11 29.36 29.46 28.85 28.78 28.62 28.32 28.58 28.58
29.62 31.09 33.28 34.32 34.86 35.06 31.31 29.81 32.41 25.62 20.54 22.19 25.79 28.51 31.95 31.42 30.54 30.29 30.45 30.99 30.59 29.98 29.50 29.45 28.78 27.61 27.26 27.39 27.82 28.31 28.09 28.11 28.23 28.26 28.50 28.35 28.54 28.31 27.76 27.60 27.93 27.56 27.87 28.64
34.84 28.52 32.48 32.83 34.94 34.48 32.62 34.65 28.57 26.63 18.20 16.12 22.22 24.26 27.19 29.25 29.43 28.98 28.95 30.47 30.52 30.56 29.84 29.58 29.15 28.29 27.69 27.58 27.61 27.94 28.36 28.13 28.19 28.36 28.45 28.22 27.81 27.89 27.56 27.70 26.98 26.93 26.94 26.93
35.00 32.38 30.23 32.23 30.79 31.37 31.13 30.27 29.39 29.38 25.06 18.41 15.47 22.26 29.83 31.03 30.82 29.54 30.48 31.67 31.23 30.99 30.56 29.95 29.49 29.03 28.36 27.52 27.05 27.21 27.31 27.37 27.57 28.00 27.83 27.52 27.30 27.27 27.36 26.60 26.26 26.08 26.10 25.61
36.05 32.63 25.94 28.58 31.48 31.69 32.08 31.34 30.62 26.28 22.37 22.51 22.73 23.58 31.34 31.55 32.05 32.00 31.94 32.43 31.92 31.89 31.61 30.51 29.21 28.58 27.51 26.85 26.38 26.50 26.55 27.02 27.60 27.45 27.48 27.25 27.20 26.86 26.11 25.69 25.55 25.33 24.14 24.23
36.31 31.14 22.64 24.96 28.88 29.68 29.81 30.97 31.26 28.99 26.43 21.05 20.55 21.60 31.36 31.04 30.90 31.41 31.27 31.17 31.60 31.25 30.11 30.46 28.17 27.89 27.22 26.52 26.06 25.98 26.25 26.52 27.01 26.89 26.87 26.65 26.24 25.97 25.51 25.10 24.61 23.49 22.39 21.78
40.51 32.23 30.90 29.96 28.54 30.44 28.07 29.35 30.21 30.49 21.51 23.98 26.59 25.99 29.13 30.96 31.13 30.91 31.03 31.44 30.55 30.33 30.33 30.01 28.10 27.19 27.00 26.22 25.95 25.51 25.88 26.32 26.71 26.46 26.02 26.05 25.70 25.31 24.75 23.98 22.27 20.95 20.59 19.50
36.97 33.13 28.50 26.85 26.99 27.00 27.14 29.41 28.83 28.89 31.12 27.30 28.42 28.78 29.82 33.23 33.46 32.28 31.67 30.49 29.91 29.50 28.52 27.34 28.66 27.36 25.92 25.43 25.67 25.42 25.12 25.51 25.82 25.42 25.37 25.37 25.26 24.14 23.14 21.26 19.71 19.25 18.78 17.81
33.73 30.06 28.71 24.78 26.13 25.58 25.97 27.48 28.92 29.80 29.15 29.38 27.82 28.36 33.19 33.79 30.23 29.56 30.52 29.55 29.26 29.00 29.15 28.86 28.07 28.26 27.28 27.49 26.35 26.41 24.96 25.16 25.12 24.62 24.85 24.68 23.35 22.12 20.57 18.78 17.67 17.17 16.31 15.56
33.18 27.40 28.94 25.81 21.36 23.51 24.56 25.12 27.00 27.20 26.79 30.15 25.95 31.10 26.91 26.93 29.00 29.48 29.23 28.26 28.14 28.20 28.93 28.85 27.72 27.50 28.41 28.26 28.20 25.83 26.00 25.15 24.53 24.11 23.96 22.48 20.45 17.93 17.22 16.27 15.17 14.20 13.22 13.27
29.40 29.92 29.44 16.79 19.54 18.39 22.93 19.80 24.57 27.95 28.41 25.94 21.58 20.41 26.51 26.55 25.74 26.81 27.28 27.39 27.05 27.68 28.25 28.78 27.79 25.60 26.12 26.17 25.73 25.66 24.83 23.93 23.42 21.99 19.45 18.58 15.79 14.55 14.56 13.14 12.21 11.70 11.58 10.58
27.19 28.01 19.35 19.57 18.09 21.71 19.48 19.12 20.51 23.19 22.70 25.60 26.41 26.18 24.60 23.66 23.61 22.68 25.57 25.88 27.08 27.07 27.81 28.03 27.93 25.88 25.12 24.96 24.76 23.51 22.42 22.37 21.12 19.60 17.70 15.06 13.64 11.23 11.37 8.54 9.69 9.62 8.87 8.43
26.98 27.40 26.85 16.70 18.96 17.03 18.33 18.27 21.70 23.80 16.05 19.77 27.39 23.25 21.32 21.68 16.76 21.31 24.38 25.26 25.62 26.02 25.87 25.98 25.79 24.99 23.95 23.58 22.80 21.36 20.36 19.49 18.79 18.01 16.89 14.19 11.75 7.61 6.82 8.36 7.19 7.96 6.28 8.18
21.32 22.54 24.00 20.10 19.91 21.03 21.63 21.11 23.36 16.73 18.85 18.64 22.18 21.88 20.77 20.24 24.15 24.57 25.09 24.21 25.11 25.40 25.02 24.88 24.23 23.99 24.05 21.55 20.69 20.25 18.63 18.48 17.34 15.14 13.00 11.52 10.10 6.58 6.23 5.52 6.50 4.81 3.49 5.54
19.61 20.88 20.13 19.92 17.94 17.13 21.77 20.99 20.97 24.33 22.92 23.06 22.28 23.04 22.80 24.04 24.46 24.48 24.80 25.34 25.08 24.24 23.60 25.03 21.82 21.86 20.62 20.28 19.74 18.80 17.61 15.59 12.95 11.61 10.58 7.93 4.36 6.37 6.94 -0.05 2.04 2.06 1.10 0.65
19.03 23.54 21.64 23.22 22.93 22.64 24.59 23.93 25.93 26.52 23.99 23.04 23.32 23.85 24.33 23.51 23.00 23.57 23.63 23.38 23.52 22.55 23.15 21.62 21.70 20.03 16.94 17.72 18.04 17.20 15.35 12.35 10.24 7.27 3.86 1.81 2.94 5.73 4.80 0.29 2.63 2.68 2.95 0.35
18.74 20.42 19.21 20.28 21.19 21.58 23.67 25.23 25.90 26.24 25.33 25.09 24.84 23.91 22.59 22.52 22.76 23.23 21.57 22.56 22.83 21.46 20.84 18.61 17.65 18.30 18.71 14.07 15.38 13.29 11.81 10.65 3.67 1.42 2.43 3.21 1.95 3.80 4.17 5.47 4.32 1.70 0.43 0.52
21.29 21.02 17.72 18.41 21.07 22.76 23.93 25.03 25.99 25.35 25.42 24.29 23.77 24.13 23.65 22.40 21.34 22.42 21.86 21.56 21.62 21.00 18.91 17.82 18.43 18.68 17.49 12.20 9.48 8.10 8.18 5.08 2.26 1.37 3.11 3.47 2.92 2.44 2.93 3.17 2.91 3.13 4.11 3.32
20.74 19.09 18.04 16.81 23.80 24.15 25.18 27.58 26.73 24.97 24.70 24.50 23.35 21.57 21.77 22.88 22.83 22.12 21.15 21.51 20.21 19.22 15.67 15.35 15.28 13.40 10.23 8.58 6.52 3.29 2.51 2.28 1.71 2.32 2.95 3.23 3.30 2.40 2.10 1.30 0.91 6.92 11.14 13.48

GFSCGP_sfc_wetblb_048.txt.gz
Wetbulb
45.16 43.91 41.00 44.54 45.45 44.22 42.60 40.90 41.00 41.45 42.32 42.49 43.62 43.74 44.79 40.52 40.98 40.45 39.87 39.64 39.44 38.98 39.29 40.22 40.81 42.04 44.06 44.78 44.55 45.08 46.40 48.01 51.86 52.08 50.15 47.83 45.19 43.92 42.88 42.70 43.61 44.71 45.77 46.72
41.49 40.30 45.75 43.78 43.15 41.97 40.98 40.49 40.87 41.24 41.31 41.36 42.60 41.89 44.51 39.79 40.06 40.56 39.59 39.28 39.32 39.04 39.36 39.20 40.26 41.07 41.56 42.33 43.89 45.09 45.71 46.91 47.60 48.02 47.12 45.77 42.85 41.11 40.66 40.42 39.97 40.59 41.07 42.12
42.15 43.20 43.48 41.37 39.45 39.18 39.89 39.47 40.56 40.23 40.08 40.45 39.56 40.39 39.48 36.84 37.71 37.98 38.61 39.69 39.58 39.76 38.62 38.85 38.69 39.27 40.02 39.34 40.19 41.22 42.37 43.79 45.27 45.12 43.96 42.45 42.01 41.28 39.63 38.51 37.80 38.06 38.71 39.11
41.25 42.87 39.80 39.54 39.19 40.46 38.04 40.66 39.69 38.36 37.97 36.51 38.41 36.65 38.60 37.20 35.92 36.09 36.96 37.98 38.55 37.94 37.88 37.40 37.54 37.52 37.82 37.92 39.12 39.82 40.25 40.46 41.28 42.38 42.49 42.25 40.01 36.58 36.71 36.91 37.26 36.96 37.75 37.47
41.05 38.86 39.19 39.11 40.05 40.72 40.68 40.78 39.64 38.85 37.96 36.52 36.11 35.20 40.26 35.58 34.59 35.39 37.00 38.18 38.96 38.58 37.96 36.39 36.00 35.73 36.11 37.50 37.74 38.40 38.20 38.20 39.05 39.57 39.59 38.48 36.65 36.52 36.82 36.97 36.47 36.48 36.60 36.78
42.25 41.84 42.07 42.40 39.87 41.47 39.81 38.52 36.75 36.82 36.70 31.15 37.09 35.71 38.25 35.18 37.23 37.16 37.46 37.59 37.84 36.93 36.36 35.48 35.05 35.27 35.31 36.10 36.52 36.84 36.14 35.72 36.69 37.23 37.49 36.93 36.13 36.08 35.96 35.98 35.59 35.53 35.72 35.62
39.88 39.03 40.57 40.70 38.53 38.60 39.26 37.87 32.93 30.45 29.97 30.28 32.29 32.06 39.26 39.07 37.57 37.91 36.67 37.02 37.74 36.82 35.32 34.34 34.03 34.15 33.92 34.06 34.59 35.35 35.41 34.43 35.81 36.25 36.29 36.41 36.19 36.28 35.62 35.56 35.25 34.69 34.31 33.86
36.87 34.64 38.09 40.64 42.39 38.36 36.64 39.48 34.69 27.88 27.10 31.03 30.57 29.99 36.89 37.56 37.92 37.72 40.01 38.57 37.59 36.20 35.43 34.56 34.51 34.13 34.06 33.97 34.47 34.46 34.08 33.47 34.87 34.94 34.77 35.69 35.83 35.66 35.12 34.83 34.47 33.97 33.35 32.79
35.93 36.17 38.73 38.83 39.63 41.64 36.28 33.55 39.03 30.12 26.39 30.47 34.17 35.12 38.54 35.44 35.01 35.62 36.60 36.63 36.02 35.70 35.07 34.58 34.26 34.26 33.99 33.76 33.69 34.15 33.69 33.50 34.00 34.32 34.77 34.65 34.93 34.48 33.61 33.61 33.70 33.05 32.91 31.68
39.52 35.58 35.97 36.85 39.98 39.05 37.86 40.72 32.84 33.96 27.53 26.97 29.28 30.17 35.91 32.89 34.41 33.61 33.68 34.49 35.78 35.89 35.12 35.00 34.17 33.45 33.84 34.16 33.91 34.22 34.26 33.57 33.80 34.21 34.62 34.21 33.95 33.96 33.71 33.52 32.39 31.98 31.36 30.90
39.27 37.53 34.11 35.82 35.00 36.38 34.54 34.28 34.88 36.84 33.91 29.88 27.85 31.21 38.26 38.30 38.01 34.78 35.85 36.78 37.16 35.99 35.59 35.41 35.18 34.38 33.71 33.73 33.46 33.42 33.32 33.03 33.21 33.81 33.96 33.63 33.34 33.10 33.11 32.40 31.69 31.04 30.16 29.37
41.61 37.30 32.66 33.30 36.67 36.39 39.68 37.35 37.22 33.75 27.67 29.49 29.07 33.23 36.65 37.70 38.88 38.95 37.79 37.51 38.46 37.43 36.95 37.15 36.27 34.97 33.27 32.80 32.93 33.08 33.38 33.42 34.05 33.98 33.70 33.42 32.94 32.59 32.05 31.35 30.48 29.69 28.54 28.11
40.44 35.86 32.25 32.02 34.14 34.52 33.72 35.99 37.77 37.12 34.96 31.13 30.21 33.52 36.23 35.95 36.50 38.18 38.01 37.65 37.53 37.47 37.37 37.18 36.45 35.26 34.47 33.36 32.74 32.74 32.91 33.26 33.66 33.20 33.09 32.57 32.20 31.90 31.38 30.43 29.34 27.97 27.28 26.34
42.86 37.83 35.66 33.70 36.29 37.42 32.27 34.81 35.46 35.40 33.35 33.40 32.39 35.04 33.98 36.13 36.28 36.89 37.57 38.07 37.80 37.20 37.25 37.20 36.14 35.61 35.47 34.19 33.24 33.10 32.90 33.41 33.18 32.73 32.51 32.03 31.88 31.61 31.00 29.48 27.40 26.05 25.42 24.74
40.06 34.35 37.19 38.88 34.27 36.11 35.69 34.96 34.75 33.69 36.55 33.76 36.71 34.53 36.62 38.29 37.98 38.57 39.75 39.04 37.51 36.92 36.91 37.07 37.11 36.46 35.53 34.25 33.51 33.26 33.22 32.67 32.90 31.82 31.81 31.89 31.86 30.91 29.24 26.82 24.96 23.84 23.10 22.43
37.08 34.65 36.50 33.75 32.85 31.45 30.96 35.56 35.34 35.64 36.77 36.90 37.13 35.63 41.28 40.34 39.55 38.35 38.02 36.86 36.51 36.95 37.23 36.84 36.52 36.66 35.30 33.89 33.67 32.60 32.36 31.97 32.23 31.60 31.29 31.47 30.07 27.81 26.48 24.34 22.41 21.68 20.73 20.32
35.00 34.88 31.54 30.15 32.81 28.06 26.63 31.26 33.96 35.36 37.43 37.61 33.25 37.88 36.28 34.73 36.44 37.73 38.06 37.08 36.98 37.11 36.60 36.00 35.54 35.43 34.95 34.20 33.91 32.20 31.94 32.07 30.73 30.40 30.23 29.06 27.94 25.71 24.01 22.13 20.39 19.39 18.67 18.28
33.94 34.01 32.90 23.92 25.35 21.86 31.78 29.04 36.04 34.49 35.10 35.38 32.51 34.13 36.11 36.91 36.55 37.22 38.67 37.76 36.20 35.73 35.28 34.96 34.97 35.06 34.13 34.67 33.56 33.33 31.95 30.82 29.62 29.23 28.76 27.64 25.47 23.09 21.20 19.61 18.67 17.81 17.64 16.64
30.26 31.94 23.06 22.70 23.42 29.03 23.52 25.33 29.76 31.34 32.60 34.67 34.60 32.53 30.83 28.82 31.59 30.58 32.64 35.19 36.07 34.23 34.86 35.53 35.85 34.48 32.47 31.96 32.45 30.78 29.39 29.60 28.75 28.10 27.33 25.40 22.84 20.26 19.18 17.30 17.16 17.12 16.01 15.41
28.92 30.07 31.25 22.38 24.11 23.31 29.07 25.46 27.14 30.97 26.30 31.64 34.27 30.13 27.25 28.49 29.02 33.23 31.30 31.97 32.17 32.58 32.76 32.88 32.82 31.77 30.92 30.97 29.42 28.30 28.10 27.27 26.90 27.36 26.41 23.69 20.57 17.49 15.85 16.31 15.13 15.76 14.53 13.97
25.09 25.71 26.00 24.33 24.83 26.25 29.40 25.88 27.70 24.15 29.79 27.56 32.92 30.49 27.54 28.99 33.43 32.80 31.46 30.05 31.63 31.55 31.12 30.78 30.83 29.53 30.17 28.26 27.47 27.30 27.18 26.05 28.06 25.29 22.47 19.87 17.76 15.12 15.55 14.22 14.10 13.12 12.23 11.68
25.57 24.77 24.47 23.21 23.48 22.27 26.27 24.31 26.15 29.58 26.18 27.13 28.31 28.49 28.19 28.93 28.47 29.35 30.02 29.45 29.06 29.26 28.86 30.38 28.50 27.80 28.38 27.53 26.83 26.95 25.51 26.47 22.53 21.09 19.10 16.63 14.10 14.57 13.11 10.76 11.25 9.95 10.05 8.96
23.69 27.77 26.62 28.03 28.44 25.59 28.05 27.63 29.57 29.68 29.55 27.46 28.56 28.72 30.15 28.36 28.34 28.72 28.70 28.49 28.53 29.01 27.99 27.62 27.89 27.13 25.78 25.57 25.97 25.85 25.94 21.19 18.67 16.77 14.46 12.78 11.42 11.45 11.68 9.96 10.00 10.99 10.70 10.08
22.12 23.57 24.12 26.19 24.56 24.83 27.06 27.11 28.64 29.11 29.84 29.50 30.09 28.89 28.61 28.32 28.06 26.88 27.31 27.23 27.51 27.29 26.00 25.40 24.75 24.54 25.00 23.86 23.20 25.64 20.24 18.66 14.05 13.80 12.39 11.04 9.62 10.78 9.83 11.59 11.64 11.07 11.21 10.93
24.29 23.69 21.17 21.05 22.81 24.97 25.88 27.50 28.79 28.95 28.48 27.12 27.00 27.35 28.14 27.57 26.09 26.83 26.36 26.57 26.67 26.14 24.73 24.03 24.28 25.07 25.84 23.07 21.60 19.04 17.35 14.34 14.10 13.13 11.93 12.29 12.00 10.39 12.32 11.32 11.97 11.01 11.83 11.21
24.13 22.28 21.87 22.61 26.61 27.92 28.28 29.80 29.43 27.84 27.36 27.76 27.33 25.73 25.88 26.74 26.86 26.05 25.86 26.54 25.82 25.31 24.24 22.71 23.42 23.71 24.08 20.24 17.46 14.52 13.51 13.38 12.91 12.23 11.68 12.90 12.74 12.00 11.16 10.67 10.13 12.47 14.05 15.11